Time,TemperatureF,DewpointF,PressureIn,WindDirection,WindDirectionDegrees,WindSpeedMPH,WindSpeedGustMPH,Humidity,HourlyPrecipIn,Conditions,Clouds,dailyrainin,SoftwareType,DateUTC
2013-04-21 00:00:00,-49.6,-59.5,29.27,NE,39,14.0,14.0,54,0.00,CLR,,0.00,WeatherDisplay:10.37,2013-04-20 12:00:00,
2013-04-21 00:15:00,-48.9,-58.5,29.26,NE,35,16.0,16.0,55,0.00,CLR,,0.00,WeatherDisplay:10.37,2013-04-20 12:15:00,
2013-04-21 00:30:00,-47.1,-56.5,29.26,NNE,28,16.0,16.0,56,0.00,CLR,,0.00,WeatherDisplay:10.37,2013-04-20 12:30:00,
2013-04-21 00:45:00,-39.0,-47.4,29.26,NE,35,15.0,16.0,61,0.00,CLR,,0.00,WeatherDisplay:10.37,2013-04-20 12:45:00,
2013-04-21 01:00:00,-37.1,-45.3,29.25,NNE,29,14.0,15.0,62,0.00,CLR,,0.00,WeatherDisplay:10.37,2013-04-20 13:00:00,
2013-04-21 01:15:00,-31.4,-38.8,29.25,NNE,30,13.0,14.0,66,0.00,CLR,,0.00,WeatherDisplay:10.37,2013-04-20 13:15:00,
2013-04-21 01:30:00,-37.4,-46.5,29.25,NE,41,13.0,13.0,59,0.00,CLR,,0.00,WeatherDisplay:10.37,2013-04-20 13:30:00,
2013-04-21 01:45:00,-44.4,-53.7,29.24,NNE,26,14.0,14.0,57,0.00,CLR,,0.00,WeatherDisplay:10.37,2013-04-20 13:45:00,
2013-04-21 02:00:00,-43.5,-52.5,29.25,NNE,21,14.0,14.0,58,0.00,CLR,,0.00,WeatherDisplay:10.37,2013-04-20 14:00:00,
2013-04-21 02:15:00,-44.4,-53.6,29.25,NNE,24,13.0,14.0,57,0.00,CLR,,0.00,WeatherDisplay:10.37,2013-04-20 14:15:00,
2013-04-21 02:30:00,-43.1,-51.9,29.25,NNE,26,13.0,13.0,59,0.00,CLR,,0.00,WeatherDisplay:10.37,2013-04-20 14:30:00,
2013-04-21 02:45:00,-40.5,-48.8,29.25,NNE,24,12.0,13.0,61,0.00,CLR,,0.00,WeatherDisplay:10.37,2013-04-20 14:45:00,
2013-04-21 03:00:00,-33.6,-40.9,29.25,NNE,20,10.0,12.0,66,0.00,CLR,,0.00,WeatherDisplay:10.37,2013-04-20 15:00:00,
2013-04-21 03:15:00,-32.0,-40.2,29.25,NNE,22,8.0,10.0,63,0.00,CLR,,0.00,WeatherDisplay:10.37,2013-04-20 15:15:00,
2013-04-21 03:30:00,-34.9,-42.7,29.25,NNE,24,8.0,8.0,64,0.00,CLR,,0.00,WeatherDisplay:10.37,2013-04-20 15:30:00,
2013-04-21 03:45:00,-41.8,-51.7,29.26,NNE,28,7.0,8.0,55,0.00,CLR,,0.00,WeatherDisplay:10.37,2013-04-20 15:45:00,
2013-04-21 04:00:00,-46.2,-56.0,29.26,NNE,33,9.0,9.0,55,0.00,CLR,,0.00,WeatherDisplay:10.37,2013-04-20 16:00:00,
2013-04-21 04:15:00,-42.2,-50.7,29.26,NNE,24,9.0,9.0,60,0.00,CLR,,0.00,WeatherDisplay:10.37,2013-04-20 16:15:00,
2013-04-21 04:30:00,-39.6,-48.0,29.26,NNE,27,8.0,9.0,61,0.00,CLR,,0.00,WeatherDisplay:10.37,2013-04-20 16:30:00,
2013-04-21 04:45:00,-39.9,-48.6,29.27,NE,36,6.0,8.0,60,0.00,CLR,,0.00,WeatherDisplay:10.37,2013-04-20 16:45:00,
2013-04-21 05:00:00,-38.8,-46.9,29.27,NNE,31,7.0,7.0,62,0.00,CLR,,0.00,WeatherDisplay:10.37,2013-04-20 17:00:00,
2013-04-21 05:15:00,-42.4,-51.8,29.27,NNE,27,8.0,8.0,57,0.00,CLR,,0.00,WeatherDisplay:10.37,2013-04-20 17:15:00,
2013-04-21 05:30:00,-45.8,-55.3,29.27,NNE,28,10.0,10.0,56,0.00,CLR,,0.00,WeatherDisplay:10.37,2013-04-20 17:30:00,
2013-04-21 05:45:00,-34.0,-41.3,29.27,NNE,27,12.0,12.0,66,0.00,CLR,,0.00,WeatherDisplay:10.37,2013-04-20 17:45:00,
2013-04-21 06:00:00,-32.2,-39.8,29.27,NNE,25,9.0,12.0,65,0.00,CLR,,0.00,WeatherDisplay:10.37,2013-04-20 18:00:00,
2013-04-21 06:15:00,-30.4,-37.9,29.28,NE,35,7.0,9.0,66,0.00,CLR,,0.00,WeatherDisplay:10.37,2013-04-20 18:15:00,
2013-04-21 06:30:00,-36.8,-45.9,29.28,NE,35,7.0,7.0,59,0.00,CLR,,0.00,WeatherDisplay:10.37,2013-04-20 18:30:00,
2013-04-21 06:45:00,-36.4,-44.2,29.28,NNE,32,9.0,9.0,64,0.00,CLR,,0.00,WeatherDisplay:10.37,2013-04-20 18:45:00,
2013-04-21 07:00:00,-34.7,-42.5,29.28,NNE,33,9.0,9.0,64,0.00,CLR,,0.00,WeatherDisplay:10.37,2013-04-20 19:00:00,
2013-04-21 07:15:00,-35.2,-43.2,29.28,NNE,23,10.0,10.0,63,0.00,CLR,,0.00,WeatherDisplay:10.37,2013-04-20 19:15:00,
2013-04-21 07:30:00,-38.5,-47.5,29.28,NNE,29,10.0,10.0,59,0.00,CLR,,0.00,WeatherDisplay:10.37,2013-04-20 19:30:00,
2013-04-21 07:45:00,-50.7,-60.5,29.28,NNE,26,14.0,14.0,54,0.00,CLR,,0.00,WeatherDisplay:10.37,2013-04-20 19:45:00,
2013-04-21 08:00:00,-49.1,-58.6,29.29,NNE,23,14.0,14.0,55,0.00,CLR,,0.00,WeatherDisplay:10.37,2013-04-20 20:00:00,
2013-04-21 08:15:00,-51.5,-61.5,29.29,NNE,22,14.0,14.0,53,0.00,CLR,,0.00,WeatherDisplay:10.37,2013-04-20 20:15:00,
2013-04-21 08:30:00,-49.9,-59.5,29.30,NNE,24,13.0,14.0,55,0.00,CLR,,0.00,WeatherDisplay:10.37,2013-04-20 20:30:00,
2013-04-21 08:45:00,-48.9,-58.8,29.31,NNE,30,14.0,14.0,54,0.00,CLR,,0.00,WeatherDisplay:10.37,2013-04-20 20:45:00,
2013-04-21 09:00:00,-46.5,-55.6,29.32,NE,34,14.0,14.0,57,0.00,CLR,,0.00,WeatherDisplay:10.37,2013-04-20 21:00:00,
2013-04-21 09:15:00,-41.8,-50.3,29.32,NNE,30,13.0,14.0,60,0.00,CLR,,0.00,WeatherDisplay:10.37,2013-04-20 21:15:00,
2013-04-21 09:30:00,-40.8,-49.4,29.32,NE,38,14.0,14.0,60,0.00,CLR,,0.00,WeatherDisplay:10.37,2013-04-20 21:30:00,
2013-04-21 09:45:00,-40.5,-49.4,29.32,NE,38,14.0,14.0,59,0.00,CLR,,0.00,WeatherDisplay:10.37,2013-04-20 21:45:00,
2013-04-21 10:00:00,-41.2,-50.1,29.33,NE,35,15.0,15.0,59,0.00,CLR,,0.00,WeatherDisplay:10.37,2013-04-20 22:00:00,
2013-04-21 10:15:00,-40.2,-48.8,29.33,NNE,31,13.0,15.0,60,0.00,CLR,,0.00,WeatherDisplay:10.37,2013-04-20 22:15:00,
2013-04-21 10:30:00,-40.0,-48.7,29.34,NNE,32,15.0,15.0,60,0.00,CLR,,0.00,WeatherDisplay:10.37,2013-04-20 22:30:00,
2013-04-21 10:45:00,-39.6,-48.2,29.35,NE,39,15.0,15.0,60,0.00,CLR,,0.00,WeatherDisplay:10.37,2013-04-20 22:45:00,
2013-04-21 11:00:00,-39.8,-48.4,29.35,NE,38,15.0,15.0,60,0.00,CLR,,0.00,WeatherDisplay:10.37,2013-04-20 23:00:00,
2013-04-21 11:15:00,-37.7,-45.9,29.36,NNE,31,16.0,16.0,62,0.00,CLR,,0.00,WeatherDisplay:10.37,2013-04-20 23:15:00,
2013-04-21 11:30:00,-36.8,-45.0,29.36,NE,35,16.0,16.0,62,0.00,CLR,,0.00,WeatherDisplay:10.37,2013-04-20 23:30:00,
2013-04-21 11:45:00,-38.5,-46.9,29.36,NNE,33,16.0,16.0,61,0.00,CLR,,0.00,WeatherDisplay:10.37,2013-04-20 23:45:00,
2013-04-21 12:00:00,-37.5,-45.7,29.36,NNE,29,15.0,16.0,62,0.00,CLR,,0.00,WeatherDisplay:10.37,2013-04-21 00:00:00,
2013-04-21 12:15:00,-37.2,-45.4,29.34,NNE,28,15.0,15.0,62,0.00,CLR,,0.00,WeatherDisplay:10.37,2013-04-21 00:15:00,
2013-04-21 12:30:00,-37.5,-46.0,29.34,NNE,30,15.0,15.0,61,0.00,CLR,,0.00,WeatherDisplay:10.37,2013-04-21 00:30:00,
2013-04-21 12:45:00,-36.7,-44.9,29.34,NNE,29,7.0,15.0,62,0.00,CLR,,0.00,WeatherDisplay:10.37,2013-04-21 00:45:00,
2013-04-21 13:00:00,-35.0,-42.7,29.34,NE,41,5.0,7.0,64,0.00,CLR,,0.00,WeatherDisplay:10.37,2013-04-21 01:00:00,
2013-04-21 13:15:00,-33.1,-41.0,29.35,NE,50,1.0,5.0,64,0.00,CLR,,0.00,WeatherDisplay:10.37,2013-04-21 01:15:00,
2013-04-21 13:30:00,-38.2,-47.2,29.35,NE,47,2.0,2.0,59,0.00,CLR,,0.00,WeatherDisplay:10.37,2013-04-21 01:30:00,
2013-04-21 13:45:00,-44.0,-53.3,29.35,NNE,23,6.0,6.0,57,0.00,CLR,,0.00,WeatherDisplay:10.37,2013-04-21 01:45:00,
2013-04-21 14:00:00,-42.1,-50.7,29.35,NNE,21,0.0,6.0,60,0.00,CLR,,0.00,WeatherDisplay:10.37,2013-04-21 02:00:00,
2013-04-21 14:15:00,-39.6,-48.6,29.36,West,262,3.0,3.0,59,0.00,CLR,,0.00,WeatherDisplay:10.37,2013-04-21 02:15:00,
2013-04-21 14:30:00,-44.3,-54.2,29.36,South,171,1.0,3.0,55,0.00,CLR,,0.00,WeatherDisplay:10.37,2013-04-21 02:30:00,
2013-04-21 14:45:00,-45.0,-54.2,29.36,WSW,258,0.0,1.0,57,0.00,CLR,,0.00,WeatherDisplay:10.37,2013-04-21 02:45:00,
2013-04-21 15:00:00,-43.9,-52.9,29.36,North,0,0.0,0.0,58,0.00,CLR,,0.00,WeatherDisplay:10.37,2013-04-21 03:00:00,
2013-04-21 15:15:00,-41.5,-50.3,29.37,ESE,118,2.0,2.0,59,0.00,CLR,,0.00,WeatherDisplay:10.37,2013-04-21 03:15:00,
2013-04-21 15:30:00,-39.0,-47.4,29.36,SE,145,0.0,2.0,61,0.00,CLR,,0.00,WeatherDisplay:10.37,2013-04-21 03:30:00,
2013-04-21 15:45:00,-32.1,-39.5,29.37,SSW,202,1.0,1.0,66,0.00,CLR,,0.00,WeatherDisplay:10.37,2013-04-21 03:45:00,
2013-04-21 16:00:00,-31.6,-39.2,29.38,North,0,0.0,1.0,65,0.00,CLR,,0.00,WeatherDisplay:10.37,2013-04-21 04:00:00,
2013-04-21 16:15:00,-28.4,-35.3,29.37,North,0,0.0,0.0,68,0.00,CLR,,0.00,WeatherDisplay:10.37,2013-04-21 04:15:00,
2013-04-21 16:30:00,-30.9,-38.6,29.38,North,0,0.0,0.0,65,0.00,CLR,,0.00,WeatherDisplay:10.37,2013-04-21 04:30:00,
2013-04-21 16:45:00,-33.7,-41.8,29.38,North,0,0.0,0.0,63,0.00,CLR,,0.00,WeatherDisplay:10.37,2013-04-21 04:45:00,
2013-04-21 17:00:00,-32.0,-39.4,29.37,NE,35,0.0,0.0,66,0.00,CLR,,0.00,WeatherDisplay:10.37,2013-04-21 05:00:00,
2013-04-21 17:15:00,-27.7,-34.7,29.38,North,0,0.0,0.0,68,0.00,CLR,,0.00,WeatherDisplay:10.37,2013-04-21 05:15:00,
2013-04-21 17:30:00,-26.6,-33.4,29.38,North,0,0.0,0.0,69,0.00,CLR,,0.00,WeatherDisplay:10.37,2013-04-21 05:30:00,
2013-04-21 17:45:00,-24.1,-30.5,29.38,North,0,0.0,0.0,71,0.00,CLR,,0.00,WeatherDisplay:10.37,2013-04-21 05:45:00,
2013-04-21 18:00:00,-25.9,-32.9,29.37,North,0,0.0,0.0,68,0.00,CLR,,0.00,WeatherDisplay:10.37,2013-04-21 06:00:00,
2013-04-21 18:15:00,-26.8,-34.1,29.37,North,0,0.0,0.0,67,0.00,CLR,,0.00,WeatherDisplay:10.37,2013-04-21 06:15:00,
2013-04-21 18:30:00,-29.7,-37.4,29.37,North,0,0.0,0.0,65,0.00,CLR,,0.00,WeatherDisplay:10.37,2013-04-21 06:30:00,
2013-04-21 18:45:00,-31.6,-39.0,29.38,North,0,0.0,0.0,66,0.00,CLR,,0.00,WeatherDisplay:10.37,2013-04-21 06:45:00,
2013-04-21 19:00:00,-32.5,-40.4,29.38,North,0,0.0,0.0,64,0.00,CLR,,0.00,WeatherDisplay:10.37,2013-04-21 07:00:00,
2013-04-21 19:15:00,-35.7,-44.0,29.38,North,0,0.0,0.0,62,0.00,CLR,,0.00,WeatherDisplay:10.37,2013-04-21 07:15:00,
2013-04-21 19:30:00,-34.7,-42.5,29.38,North,0,0.0,0.0,64,0.00,CLR,,0.00,WeatherDisplay:10.37,2013-04-21 07:30:00,
2013-04-21 19:45:00,-35.6,-43.7,29.38,North,0,0.0,0.0,63,0.00,CLR,,0.00,WeatherDisplay:10.37,2013-04-21 07:45:00,
2013-04-21 20:00:00,-35.4,-43.5,29.39,North,0,0.0,0.0,63,0.00,CLR,,0.00,WeatherDisplay:10.37,2013-04-21 08:00:00,
2013-04-21 20:15:00,-33.6,-41.2,29.39,North,0,0.0,0.0,65,0.00,CLR,,0.00,WeatherDisplay:10.37,2013-04-21 08:15:00,
2013-04-21 20:30:00,-29.2,-35.9,29.39,North,0,0.0,0.0,69,0.00,CLR,,0.00,WeatherDisplay:10.37,2013-04-21 08:30:00,
2013-04-21 20:45:00,-24.8,-31.3,29.39,North,0,0.0,0.0,70,0.00,CLR,,0.00,WeatherDisplay:10.37,2013-04-21 08:45:00,
2013-04-21 21:00:00,-24.0,-30.6,29.40,North,0,0.0,0.0,70,0.00,CLR,,0.00,WeatherDisplay:10.37,2013-04-21 09:00:00,
2013-04-21 21:15:00,-27.4,-35.0,29.40,North,0,0.0,0.0,66,0.00,CLR,,0.00,WeatherDisplay:10.37,2013-04-21 09:15:00,
2013-04-21 21:30:00,-28.8,-36.0,29.41,NE,35,6.0,6.0,67,0.00,CLR,,0.00,WeatherDisplay:10.37,2013-04-21 09:30:00,
2013-04-21 21:45:00,-32.3,-39.9,29.41,NNE,26,10.0,10.0,65,0.00,CLR,,0.00,WeatherDisplay:10.37,2013-04-21 09:45:00,
2013-04-21 22:00:00,-31.5,-38.9,29.40,NNE,17,10.0,10.0,66,0.00,CLR,,0.00,WeatherDisplay:10.37,2013-04-21 10:00:00,
2013-04-21 22:15:00,-27.8,-34.8,29.40,NNE,17,5.0,10.0,68,0.00,CLR,,0.00,WeatherDisplay:10.37,2013-04-21 10:15:00,
2013-04-21 22:30:00,-26.7,-33.5,29.40,NNE,21,6.0,6.0,69,0.00,CLR,,0.00,WeatherDisplay:10.37,2013-04-21 10:30:00,
2013-04-21 22:45:00,-24.3,-30.9,29.41,NNE,22,3.0,6.0,70,0.00,CLR,,0.00,WeatherDisplay:10.37,2013-04-21 10:45:00,
2013-04-21 23:00:00,-23.8,-30.5,29.41,NNE,31,1.0,3.0,70,0.00,CLR,,0.00,WeatherDisplay:10.37,2013-04-21 11:00:00,
2013-04-21 23:15:00,-30.0,-38.0,29.42,NNE,22,5.0,5.0,64,0.00,CLR,,0.00,WeatherDisplay:10.37,2013-04-21 11:15:00,
2013-04-21 23:30:00,-35.8,-44.4,29.42,NNE,20,9.0,9.0,61,0.00,CLR,,0.00,WeatherDisplay:10.37,2013-04-21 11:30:00,
2013-04-21 23:45:00,-35.7,-44.0,29.43,NNE,26,9.0,9.0,62,0.00,CLR,,0.00,WeatherDisplay:10.37,2013-04-21 11:45:00,